�������l�o���
Date,Time,MP-1(��Sv/h),MP-2(��Sv/h),MP-3(��Sv/h),MP-4(��Sv/h),MP-5(��Sv/h),MP-6(��Sv/h),MP-7(��Sv/h),MP-8(��Sv/h),����,����(m/s),���J
2016/11/22,00:00,1.062,1.788,1.214,2.026,1.399,0.574,1.029,0.954,�k��,6.2,�L
2016/11/22,00:10,1.069,1.792,1.215,2.032,1.404,0.573,1.030,0.957,�k�k��,6.6,��
2016/11/22,00:20,1.068,1.798,1.220,2.036,1.408,0.574,1.030,0.956,�k�k��,5.7,�L
2016/11/22,00:30,1.067,1.796,1.221,2.039,1.406,0.572,1.034,0.959,�k�k��,5.8,�L
2016/11/22,00:40,1.070,1.799,1.217,2.036,1.400,0.572,1.031,0.958,�k,7.7,�L
2016/11/22,00:50,1.068,1.794,1.215,2.022,1.391,0.572,1.028,0.955,�k�k��,11.4,�L
2016/11/22,01:00,1.055,1.759,1.201,2.001,1.370,0.569,1.023,0.952,�k�k��,9.1,�L
2016/11/22,01:10,1.050,1.752,1.200,2.000,1.372,0.570,1.025,0.955,�k��,6.2,�L
2016/11/22,01:20,1.057,1.769,1.205,2.011,1.373,0.574,1.027,0.953,�k�k��,7.2,�L
2016/11/22,01:30,1.063,1.769,1.208,2.013,1.380,0.575,1.026,0.954,�k�k��,7.3,�L
2016/11/22,01:40,1.067,1.782,1.214,2.022,1.388,0.575,1.028,0.956,�k�k��,8.6,��
2016/11/22,01:50,1.071,1.791,1.217,2.026,1.387,0.574,1.029,0.958,�k�k��,8.0,��
2016/11/22,02:00,1.069,1.793,1.215,2.029,1.392,0.574,1.029,0.957,�k�k��,7.6,��
2016/11/22,02:10,1.070,1.794,1.215,2.028,1.391,0.572,1.029,0.956,�k�k��,8.6,��
2016/11/22,02:20,1.071,1.794,1.215,2.028,1.391,0.573,1.031,0.957,�k�k��,8.6,��
2016/11/22,02:30,1.073,1.798,1.215,2.030,1.394,0.572,1.032,0.955,�k�k��,7.5,��
2016/11/22,02:40,1.073,1.801,1.214,2.032,1.393,0.572,1.031,0.956,�k�k��,7.9,��
2016/11/22,02:50,1.071,1.800,1.215,2.033,1.392,0.570,1.031,0.956,�k�k��,8.5,��
2016/11/22,03:00,1.071,1.800,1.214,2.032,1.397,0.571,1.033,0.958,�k�k��,8.0,��
2016/11/22,03:10,1.070,1.802,1.212,2.033,1.392,0.569,1.032,0.957,�k�k��,6.8,��
2016/11/22,03:20,1.072,1.804,1.217,2.033,1.397,0.569,1.032,0.958,�k�k��,6.6,��
2016/11/22,03:30,1.072,1.803,1.215,2.033,1.398,0.569,1.031,0.955,�k�k��,6.1,��
2016/11/22,03:40,1.072,1.806,1.215,2.034,1.398,0.569,1.035,0.957,�k�k��,6.1,��
2016/11/22,03:50,1.074,1.806,1.216,2.035,1.399,0.569,1.033,0.958,�k�k��,6.7,��
2016/11/22,04:00,1.074,1.804,1.215,2.035,1.399,0.571,1.036,0.958,�k,6.4,��
2016/11/22,04:10,1.073,1.807,1.219,2.036,1.397,0.570,1.033,0.958,�k,7.4,��
2016/11/22,04:20,1.073,1.805,1.217,2.040,1.400,0.571,1.035,0.958,�k,6.8,��
2016/11/22,04:30,1.074,1.807,1.216,2.037,1.400,0.569,1.034,0.959,�k�k��,6.3,��
2016/11/22,04:40,1.074,1.808,1.217,2.036,1.402,0.572,1.036,0.959,�k�k��,5.4,��
2016/11/22,04:50,1.076,1.810,1.216,2.038,1.402,0.569,1.035,0.958,�k�k��,4.5,��
2016/11/22,05:00,1.074,1.812,1.215,2.040,1.400,0.571,1.035,0.958,�k�k��,3.5,��
2016/11/22,05:10,1.075,1.809,1.218,2.040,1.403,0.570,1.035,0.960,�k,4.1,��
2016/11/22,05:20,1.074,1.812,1.218,2.036,1.404,0.571,1.036,0.959,�k�k��,2.2,��
2016/11/22,05:30,1.076,1.813,1.218,2.038,1.402,0.569,1.035,0.958,���k��,1.7,��
2016/11/22,05:40,1.075,1.813,1.217,2.043,1.403,0.570,1.036,0.958,�k��,2.6,��
2016/11/22,05:50,1.075,1.814,1.217,2.039,1.403,0.570,1.036,0.959,�k��,3.0,��
2016/11/22,06:00,1.078,1.812,1.219,2.039,1.404,0.569,1.036,0.959,�k��,2.0,��
2016/11/22,06:10,1.075,1.815,1.219,2.040,1.403,0.571,1.034,0.960,�k��,2.6,��
2016/11/22,06:20,1.076,1.816,1.220,2.043,1.403,0.571,1.036,0.958,�k��,2.6,��
2016/11/22,06:30,1.078,1.814,1.219,2.044,1.406,0.571,1.036,0.960,��,2.3,��
2016/11/22,06:40,1.079,1.815,1.219,2.046,1.405,0.572,1.035,0.960,���쐼,2.8,��
2016/11/22,06:50,1.076,1.814,1.219,2.042,1.402,0.573,1.037,0.961,�쐼,3.2,��
2016/11/22,07:00,1.077,1.815,1.220,2.042,1.408,0.571,1.036,0.961,���쐼,2.6,��
2016/11/22,07:10,1.078,1.816,1.219,2.047,1.406,0.572,1.039,0.960,���쐼,1.7,��
2016/11/22,07:20,1.079,1.815,1.218,2.045,1.406,0.574,1.037,0.960,�쐼,1.2,��
2016/11/22,07:30,1.079,1.813,1.219,2.043,1.407,0.572,1.039,0.962,��,0.9,��
2016/11/22,07:40,1.079,1.815,1.222,2.045,1.409,0.571,1.038,0.961,��쐼,2.0,�L
2016/11/22,07:50,1.081,1.815,1.223,2.042,1.407,0.571,1.040,0.959,��,3.0,�L
2016/11/22,08:00,1.080,1.816,1.219,2.047,1.409,0.571,1.038,0.961,��,1.5,��
2016/11/22,08:10,1.078,1.819,1.221,2.043,1.407,0.571,1.039,0.962,��,1.7,��
2016/11/22,08:20,1.079,1.819,1.221,2.044,1.408,0.572,1.041,0.961,��쐼,0.9,��
2016/11/22,08:30,1.081,1.821,1.220,2.047,1.408,0.570,1.038,0.959,��쓌,0.9,��
2016/11/22,08:40,1.080,1.819,1.223,2.046,1.411,0.571,1.039,0.960,��,0.9,��
2016/11/22,08:50,1.079,1.818,1.223,2.048,1.409,0.572,1.040,0.963,��쓌,0.9,��
2016/11/22,09:00,1.081,1.819,1.222,2.047,1.411,0.572,1.041,0.962,��쓌,1.1,��
2016/11/22,09:10,1.080,1.817,1.223,2.046,1.409,0.571,1.041,0.963,��,2.6,��
2016/11/22,09:20,1.079,1.819,1.222,2.045,1.412,0.572,1.040,0.961,��,2.2,��
2016/11/22,09:30,1.081,1.820,1.222,2.049,1.410,0.572,1.039,0.962,�쐼,1.7,��
2016/11/22,09:40,1.082,1.821,1.221,2.049,1.409,0.571,1.040,0.964,���쐼,2.3,��
2016/11/22,09:50,1.085,1.823,1.223,2.048,1.413,0.574,1.039,0.962,��쐼,1.4,��
2016/11/22,10:00,1.085,1.825,1.224,2.049,1.417,0.573,1.038,0.963,-,CALM,��
2016/11/22,10:10,1.083,1.825,1.224,2.049,1.414,0.575,1.038,0.964,�k�k��,0.9,��
2016/11/22,10:20,1.085,1.825,1.225,2.052,1.415,0.575,1.040,0.964,���k��,1.1,��
2016/11/22,10:30,1.083,1.824,1.228,2.048,1.418,0.575,1.040,0.963,���k��,1.7,��
2016/11/22,10:40,1.084,1.824,1.226,2.050,1.417,0.574,1.038,0.961,���k��,1.2,��
2016/11/22,10:50,1.082,1.828,1.223,2.050,1.419,0.571,1.041,0.965,�k�k��,1.5,��
2016/11/22,11:00,1.082,1.822,1.224,2.052,1.416,0.572,1.042,0.965,�k��,2.6,��
2016/11/22,11:10,1.083,1.822,1.224,2.055,1.419,0.573,1.041,0.965,���k��,2.3,��
2016/11/22,11:20,1.083,1.828,1.224,2.052,1.418,0.572,1.043,0.964,�k��,2.3,��
2016/11/22,11:30,1.085,1.826,1.227,2.052,1.419,0.573,1.039,0.966,���k��,2.8,��
2016/11/22,11:40,1.081,1.826,1.224,2.053,1.421,0.573,1.041,0.965,�k��,3.0,��
2016/11/22,11:50,1.083,1.830,1.229,2.052,1.420,0.574,1.043,0.963,�k��,4.0,��
2016/11/22,12:00,1.082,1.830,1.228,2.052,1.423,0.575,1.040,0.966,�k��,4.2,��
2016/11/22,12:10,1.084,1.828,1.227,2.056,1.423,0.574,1.039,0.965,�k��,4.3,��
2016/11/22,12:20,1.086,1.828,1.225,2.056,1.423,0.575,1.043,0.964,�k�k��,2.5,��
2016/11/22,12:30,1.084,1.830,1.228,2.056,1.424,0.575,1.042,0.964,�k��,2.0,��
2016/11/22,12:40,1.085,1.828,1.228,2.055,1.423,0.575,1.041,0.965,��,1.7,��
2016/11/22,12:50,1.086,1.829,1.227,2.059,1.421,0.575,1.041,0.964,���k��,1.2,��
2016/11/22,13:00,1.086,1.831,1.228,2.058,1.422,0.577,1.042,0.962,���k��,1.2,��
2016/11/22,13:10,1.087,1.832,1.230,2.056,1.423,0.576,1.042,0.960,�k��,1.1,��
2016/11/22,13:20,1.086,1.832,1.229,2.059,1.426,0.575,1.042,0.961,�k��,1.7,��
2016/11/22,13:30,1.085,1.830,1.229,2.057,1.428,0.574,1.041,0.962,�k��,1.5,��
2016/11/22,13:40,1.085,1.833,1.231,2.061,1.427,0.576,1.041,0.963,�k�k��,2.3,��
2016/11/22,13:50,1.089,1.832,1.231,2.057,1.425,0.574,1.041,0.962,�k��,2.6,��
2016/11/22,14:00,1.089,1.836,1.232,2.059,1.427,0.576,1.043,0.963,���k��,3.1,��
2016/11/22,14:10,1.088,1.834,1.229,2.060,1.427,0.576,1.042,0.961,�k��,2.9,��
2016/11/22,14:20,1.090,1.834,1.232,2.058,1.428,0.575,1.042,0.962,�k��,3.3,��
2016/11/22,14:30,1.087,1.831,1.232,2.062,1.429,0.575,1.045,0.964,�k��,2.9,��
2016/11/22,14:40,1.089,1.834,1.231,2.059,1.430,0.574,1.045,0.962,�k��,1.9,��
2016/11/22,14:50,1.088,1.834,1.232,2.060,1.427,0.575,1.044,0.963,���k��,2.0,��
2016/11/22,15:00,1.088,1.835,1.231,2.063,1.426,0.574,1.041,0.961,�k��,2.0,��
2016/11/22,15:10,1.087,1.836,1.233,2.062,1.430,0.575,1.046,0.963,�k�k��,2.0,��
2016/11/22,15:20,1.090,1.835,1.230,2.060,1.429,0.576,1.043,0.965,�k��,2.0,��
2016/11/22,15:30,1.090,1.837,1.232,2.058,1.430,0.575,1.043,0.966,�k�k��,1.9,��
2016/11/22,15:40,1.088,1.840,1.232,2.063,1.428,0.576,1.044,0.967,�k�k��,1.5,��
2016/11/22,15:50,1.090,1.839,1.233,2.060,1.427,0.576,1.045,0.965,�k�k��,1.2,��
2016/11/22,16:00,1.091,1.838,1.232,2.060,1.426,0.577,1.046,0.964,�k�k��,1.5,��
2016/11/22,16:10,1.090,1.841,1.233,2.058,1.426,0.577,1.046,0.969,�k�k��,2.2,��
2016/11/22,16:20,1.091,1.840,1.233,2.059,1.426,0.576,1.046,0.965,�k,3.0,��
2016/11/22,16:30,1.091,1.839,1.234,2.063,1.429,0.577,1.046,0.965,�k,3.7,��
2016/11/22,16:40,1.091,1.838,1.235,2.062,1.427,0.576,1.046,0.966,�k,3.2,��
2016/11/22,16:50,1.091,1.844,1.233,2.060,1.430,0.577,1.045,0.966,�k�k��,5.0,��
2016/11/22,17:00,1.086,1.838,1.234,2.060,1.431,0.576,1.043,0.966,�k,4.9,��
2016/11/22,17:10,1.089,1.841,1.234,2.062,1.432,0.576,1.044,0.966,�k,4.3,��
2016/11/22,17:20,1.088,1.838,1.235,2.059,1.431,0.575,1.046,0.966,�k,3.4,��
2016/11/22,17:30,1.090,1.838,1.235,2.059,1.432,0.575,1.045,0.965,�k,4.2,��
2016/11/22,17:40,1.086,1.838,1.234,2.060,1.430,0.575,1.046,0.963,�k,4.5,��
2016/11/22,17:50,1.086,1.837,1.235,2.059,1.429,0.576,1.045,0.964,�k�k��,4.3,��
2016/11/22,18:00,1.089,1.837,1.235,2.059,1.431,0.576,1.044,0.964,�k�k��,3.7,��
2016/11/22,18:10,1.088,1.835,1.233,2.061,1.431,0.574,1.046,0.964,�k��,1.4,��
2016/11/22,18:20,1.089,1.839,1.235,2.063,1.427,0.576,1.046,0.965,�k,3.6,��
2016/11/22,18:30,1.085,1.838,1.236,2.061,1.431,0.576,1.045,0.962,�k,4.4,��
2016/11/22,18:40,1.088,1.836,1.235,2.061,1.429,0.574,1.047,0.964,�k,4.2,��
2016/11/22,18:50,1.088,1.838,1.234,2.062,1.431,0.575,1.043,0.966,�k,3.5,��
2016/11/22,19:00,1.087,1.837,1.235,2.061,1.429,0.574,1.044,0.964,�k�k��,3.3,��
2016/11/22,19:10,1.088,1.837,1.233,2.060,1.429,0.575,1.046,0.966,�k��,2.2,��
2016/11/22,19:20,1.086,1.835,1.231,2.059,1.430,0.575,1.047,0.966,�k�k��,4.5,��
2016/11/22,19:30,1.090,1.836,1.235,2.059,1.430,0.575,1.045,0.966,�k,5.0,��
2016/11/22,19:40,1.088,1.836,1.233,2.062,1.427,0.576,1.046,0.965,�k,4.1,��
2016/11/22,19:50,1.087,1.838,1.232,2.063,1.431,0.575,1.046,0.964,�k,4.9,��
2016/11/22,20:00,1.089,1.836,1.234,2.059,1.431,0.575,1.043,0.964,�k,4.0,��
2016/11/22,20:10,1.086,1.836,1.233,2.057,1.429,0.575,1.044,0.967,�k�k��,3.0,��
2016/11/22,20:20,1.089,1.838,1.230,2.060,1.430,0.575,1.046,0.965,�k��,1.4,��
2016/11/22,20:30,1.086,1.831,1.231,2.060,1.428,0.575,1.046,0.965,���k��,2.0,��
2016/11/22,20:40,1.086,1.835,1.234,2.059,1.429,0.575,1.047,0.964,���쓌,1.9,��
2016/11/22,20:50,1.085,1.838,1.232,2.059,1.431,0.575,1.044,0.964,�쓌,1.4,��
2016/11/22,21:00,1.087,1.835,1.230,2.060,1.430,0.575,1.043,0.964,��,1.2,��
2016/11/22,21:10,1.088,1.836,1.233,2.062,1.430,0.575,1.045,0.965,��쓌,2.0,��
2016/11/22,21:20,1.086,1.832,1.231,2.059,1.426,0.574,1.044,0.965,��,2.6,��
2016/11/22,21:30,1.088,1.838,1.234,2.062,1.429,0.575,1.046,0.964,��쓌,3.6,��
2016/11/22,21:40,1.088,1.835,1.230,2.062,1.428,0.575,1.045,0.966,��,3.5,��
2016/11/22,21:50,1.089,1.837,1.234,2.061,1.429,0.574,1.046,0.966,��쓌,3.5,��
2016/11/22,22:00,1.089,1.835,1.230,2.060,1.431,0.575,1.047,0.967,��,3.3,��
2016/11/22,22:10,1.088,1.839,1.232,2.061,1.431,0.576,1.045,0.964,��쓌,4.3,��
2016/11/22,22:20,1.087,1.839,1.234,2.063,1.428,0.574,1.045,0.966,��쐼,3.5,��
2016/11/22,22:30,1.089,1.839,1.232,2.062,1.430,0.578,1.047,0.965,��쐼,3.6,��
2016/11/22,22:40,1.089,1.840,1.233,2.063,1.431,0.576,1.046,0.965,��쐼,3.9,��
2016/11/22,22:50,1.089,1.837,1.234,2.062,1.429,0.576,1.046,0.962,��,3.3,��
2016/11/22,23:00,1.086,1.839,1.233,2.060,1.429,0.575,1.044,0.967,��,2.6,��
2016/11/22,23:10,1.089,1.839,1.235,2.062,1.430,0.578,1.045,0.966,��,2.6,��
2016/11/22,23:20,1.087,1.837,1.234,2.062,1.430,0.576,1.045,0.964,�쐼,1.5,��
2016/11/22,23:30,1.089,1.838,1.231,2.061,1.431,0.575,1.045,0.965,���쐼,1.2,��
2016/11/22,23:40,1.090,1.839,1.234,2.061,1.431,0.575,1.043,0.965,��,1.1,��
2016/11/22,23:50,1.085,1.839,1.232,2.058,1.432,0.577,1.044,0.964,���k��,1.1,��
